Location: Unspecified
(0.0000°N, 0.0000°E)
Time: 07:07:08
(UTC+02:00)

ARIANE 5 DEB (SYLDA) - Visible Passes

Search period start: 28 August 2014 00:00
Search period end: 07 September 2014 00:00
Orbit: 155 x 5478 km, 1.4° (Epoch: 27 August)

Date Brightness Start Highest point End Pass type
(mag) Time Alt. Az. Time Alt. Az. Time Alt. Az.
28 Aug 5.3 05:07:36 60° E 05:07:36 60° E 05:21:05 10° E visible
28 Aug 6.4 07:34:29 10° W 07:46:12 90° S 08:18:05 10° E visible
28 Aug 3.0 21:36:11 10° W 21:42:30 71° WNW 21:42:30 71° WNW visible
29 Aug 4.8 05:29:19 81° ENE 05:29:19 81° ENE 05:45:43 10° E visible
29 Aug 4.4 21:59:51 10° W 22:04:11 36° W 22:04:11 36° W visible
30 Aug 4.6 05:50:50 73° W 05:51:55 88° N 06:10:10 10° E visible
30 Aug 5.5 22:23:13 10° W 22:25:38 21° W 22:25:38 21° W visible
31 Aug 4.7 06:12:08 50° W 06:14:50 89° N 06:34:27 10° E visible
31 Aug 6.2 22:46:17 10° W 22:46:53 12° W 22:46:53 12° W visible
01 Sep 7.0 04:07:09 12° E 04:07:09 12° E 04:07:48 10° E visible
01 Sep 5.1 06:33:15 34° W 06:37:33 89° S 06:58:33 10° E visible
01 Sep 4.5 20:22:54 10° W 20:37:11 85° N 20:41:49 13° E visible
02 Sep 6.6 04:28:05 18° E 04:28:05 18° E 04:30:51 10° E visible
02 Sep 5.4 06:54:10 22° W 07:00:05 88° S 07:22:28 10° E visible
02 Sep 4.3 20:46:14 10° W 20:59:22 83° N 21:02:39 24° E visible
03 Sep 6.1 04:48:48 26° E 04:48:48 26° E 04:53:44 10° E visible
03 Sep 5.7 07:14:52 13° W 07:22:26 88° S 07:46:11 10° E visible
03 Sep 3.9 21:09:15 10° W 21:21:19 81° N 21:23:17 41° E visible
04 Sep 5.5 05:09:20 37° E 05:09:20 37° E 05:16:27 10° E visible
04 Sep 3.6 21:31:57 10° W 21:43:01 80° N 21:43:42 68° ENE visible
05 Sep 4.7 05:29:40 54° E 05:29:40 54° E 05:38:59 10° E visible
05 Sep 3.9 21:54:20 10° W 22:03:54 70° WNW 22:03:54 70° WNW visible
06 Sep 4.1 05:49:47 80° ESE 05:49:47 80° ESE 06:01:21 10° E visible
06 Sep 4.8 22:16:25 10° W 22:23:53 46° WNW 22:23:53 46° WNW visible
